Date String (YYYY-MM-DD hh:mm:ss) UTC,Instrument flags,Ambient pressure (hPa),Sample flow (lpm),Bypass flow (lpm),Sample temperature (°C),Ambient temperature (°C),ASC tube jacket temperature (°C),LED temperature (°C),Box temperature (°C),Sample RH (%),Span deviation,Mass concentration (μg/m³),Mass concentration (μg/m³),Mass concentration (μg/m³)
DateTimeUTC,F1_M11,P_M11,Q1_M11,Q2_M11,T1_M11,T2_M11,T3_M11,T4_M11,T5_M11,U1_M11,ZSPAN_M11,X0_M11,X2_M11,X1_M11
2021-12-06 07:00:00,,0831.7,5.00,0.00,21.4,21.5,00.0,30.3,23.0,08.8,0000.0,0009.79,0001.83,0001.18
2021-12-06 07:01:00,,0831.7,5.00,0.00,21.3,21.1,00.0,30.3,23.0,08.8,0000.0,0009.73,0001.87,0001.19
2021-12-06 07:02:00,,0831.7,4.99,0.00,21.3,20.8,00.0,30.3,22.9,08.8,0000.0,0009.72,0001.87,0001.18
2021-12-06 07:03:00,,0831.6,5.02,0.00,21.2,20.6,00.0,30.3,22.8,08.8,0000.0,0009.78,0001.84,0001.17
2021-12-06 07:04:00,,0831.6,4.99,0.00,21.2,20.4,00.0,30.3,22.7,08.9,0000.0,0009.55,0001.81,0001.17
2021-12-06 07:05:00,,0831.7,5.00,0.00,21.2,20.3,00.0,30.3,22.7,08.9,0000.0,0008.33,0001.80,0001.17
2021-12-06 07:06:00,,0831.7,5.01,0.00,21.1,20.2,00.0,30.2,22.6,08.9,0000.0,0008.01,0001.82,0001.18
2021-12-06 07:07:00,,0831.7,4.99,0.00,21.1,20.1,00.0,30.2,22.5,08.9,0000.0,0008.26,0001.86,0001.18
2021-12-06 07:08:00,,0831.7,5.01,0.00,21.0,20.0,00.0,30.2,22.5,08.9,0000.0,0007.79,0001.88,0001.18
2021-12-06 07:09:00,,0831.7,4.99,0.00,21.0,19.9,00.0,30.2,22.4,09.0,0000.0,0007.28,0001.88,0001.16
2021-12-06 07:10:00,,0831.7,5.01,0.00,20.9,19.8,00.0,30.1,22.4,09.0,0000.0,0005.59,0001.85,0001.16
2021-12-06 07:11:00,,0831.7,4.99,0.00,20.9,19.9,00.0,30.1,22.4,09.0,0000.0,0005.37,0001.87,0001.15
2021-12-06 07:12:00,,0831.7,5.00,0.00,21.0,20.9,00.0,30.1,22.6,09.0,0000.0,0005.33,0001.84,0001.14
2021-12-06 07:13:00,,0831.7,5.00,0.00,21.1,22.0,00.0,30.2,23.0,08.9,0000.0,0004.79,0001.84,0001.15
2021-12-06 07:14:00,,0831.7,4.99,0.00,21.3,22.6,00.0,30.2,23.3,08.8,0000.0,0004.74,0001.83,0001.14
2021-12-06 07:15:00,,0831.7,5.00,0.00,21.4,22.2,00.0,30.2,23.3,08.8,0000.0,0005.48,0001.85,0001.15
2021-12-06 07:16:00,,0831.7,5.00,0.00,21.4,21.8,00.0,30.3,23.2,08.8,0000.0,0005.59,0001.84,0001.16
2021-12-06 07:17:00,,0831.7,5.01,0.00,21.4,21.5,00.0,30.3,23.1,08.8,0000.0,0006.70,0001.81,0001.16
2021-12-06 07:18:00,,0831.7,5.01,0.00,21.4,21.2,00.0,30.3,23.0,08.8,0000.0,0005.90,0001.77,0001.17
2021-12-06 07:19:00,,0831.7,4.99,0.00,21.3,20.9,00.0,30.3,22.9,08.8,0000.0,0005.51,0001.76,0001.18
2021-12-06 07:20:00,,0831.6,5.01,0.00,21.3,20.7,00.0,30.3,22.8,08.8,0000.0,0006.91,0001.75,0001.18
2021-12-06 07:21:00,,0831.5,4.99,0.00,21.2,20.5,00.0,30.3,22.7,08.8,0000.0,0007.29,0001.76,0001.20
2021-12-06 07:22:00,,0831.6,5.01,0.00,21.2,20.4,00.0,30.2,22.7,08.9,0000.0,0007.34,0001.79,0001.21
2021-12-06 07:23:00,,0831.7,4.99,0.00,21.1,20.3,00.0,30.2,22.6,08.9,0000.0,0007.68,0001.78,0001.22
2021-12-06 07:24:00,,0831.7,4.99,0.00,21.1,20.2,00.0,30.2,22.5,08.9,0000.0,0008.10,0001.76,0001.23
2021-12-06 07:25:00,,0831.7,5.01,0.00,21.0,20.1,00.0,30.2,22.5,08.9,0000.0,0008.09,0001.75,0001.24
2021-12-06 07:26:00,,0831.7,5.00,0.00,21.0,20.0,00.0,30.2,22.5,08.9,0000.0,0008.32,0001.75,0001.23
2021-12-06 07:27:00,,0831.6,5.00,0.00,20.9,19.9,00.0,30.1,22.4,08.9,0000.0,0008.44,0001.80,0001.24
2021-12-06 07:28:00,,0831.6,4.99,0.00,20.9,19.8,00.0,30.1,22.4,09.0,0000.0,0007.91,0001.85,0001.24
2021-12-06 07:29:00,,0831.5,5.01,0.00,20.9,19.8,00.0,30.1,22.3,09.0,0000.0,0008.16,0001.90,0001.24
2021-12-06 07:30:00,,0831.7,4.98,0.00,20.9,20.6,00.0,30.1,22.5,08.9,0000.0,0008.39,0001.92,0001.23
2021-12-06 07:31:00,,0831.7,5.02,0.00,21.1,21.7,00.0,30.1,22.9,08.9,0000.0,0007.81,0001.95,0001.23
2021-12-06 07:32:00,,0831.7,5.00,0.00,21.3,22.3,00.0,30.2,23.2,08.8,0000.0,0007.63,0001.92,0001.21
2021-12-06 07:33:00,,0831.6,4.99,0.00,21.3,21.9,00.0,30.2,23.2,08.7,0000.0,0008.49,0001.93,0001.21
2021-12-06 07:34:00,,0831.5,5.02,0.00,21.3,21.5,00.0,30.2,23.0,08.7,0000.0,0008.39,0001.96,0001.22
2021-12-06 07:35:00,,0831.6,5.00,0.00,21.2,21.1,00.0,30.2,22.9,08.7,0000.0,0008.00,0002.02,0001.23
2021-12-06 07:36:00,,0831.6,5.00,0.00,21.2,20.8,00.0,30.2,22.8,08.8,0000.0,0007.98,0002.05,0001.23
2021-12-06 07:37:00,,0831.6,5.00,0.00,21.2,20.6,00.0,30.2,22.8,08.8,0000.0,0007.44,0002.05,0001.23
2021-12-06 07:38:00,,0831.5,4.99,0.00,21.2,20.5,00.0,30.2,22.7,08.8,0000.0,0007.06,0002.06,0001.23
2021-12-06 07:39:00,,0831.5,5.01,0.00,21.1,20.4,00.0,30.2,22.7,08.8,0000.0,0006.94,0002.05,0001.22
2021-12-06 07:40:00,,0831.5,4.99,0.00,21.1,20.3,00.0,30.2,22.6,08.8,0000.0,0006.51,0002.02,0001.22
2021-12-06 07:41:00,,0831.6,5.00,0.00,21.0,20.2,00.0,30.1,22.5,08.8,0000.0,0006.06,0002.03,0001.23
2021-12-06 07:42:00,,0831.6,5.00,0.00,21.0,20.1,00.0,30.1,22.5,08.9,0000.0,0006.07,0002.01,0001.23
2021-12-06 07:43:00,,0831.5,5.01,0.00,20.9,20.0,00.0,30.1,22.4,08.9,0000.0,0006.36,0002.04,0001.25
2021-12-06 07:44:00,,0831.5,4.99,0.00,20.9,19.9,00.0,30.1,22.3,08.9,0000.0,0005.86,0002.05,0001.26
2021-12-06 07:45:00,,0831.5,5.02,0.00,20.8,19.8,00.0,30.0,22.2,08.9,0000.0,0007.56,0002.02,0001.26
2021-12-06 07:46:00,,0831.6,4.99,0.00,20.9,20.7,00.0,30.0,22.5,08.9,0000.0,0007.74,0001.98,0001.26
2021-12-06 07:47:00,,0831.5,5.00,0.00,21.1,21.8,00.0,30.1,22.9,08.9,0000.0,0007.81,0001.96,0001.26
2021-12-06 07:48:00,,0831.4,5.02,0.00,21.2,22.5,00.0,30.1,23.2,08.8,0000.0,0007.79,0001.94,0001.25
2021-12-06 07:49:00,,0831.4,4.98,0.00,21.3,22.1,00.0,30.2,23.2,08.8,0000.0,0007.64,0001.88,0001.25
2021-12-06 07:50:00,,0831.5,5.00,0.00,21.3,21.6,00.0,30.2,23.0,08.7,0000.0,0008.03,0001.87,0001.26
2021-12-06 07:51:00,,0831.4,5.00,0.00,21.2,21.1,00.0,30.2,22.9,08.7,0000.0,0008.07,0001.87,0001.26
2021-12-06 07:52:00,,0831.4,4.99,0.00,21.2,20.8,00.0,30.2,22.8,08.7,0000.0,0008.21,0001.83,0001.27
2021-12-06 07:53:00,,0831.3,5.01,0.00,21.2,20.5,00.0,30.2,22.7,08.8,0000.0,0008.29,0001.84,0001.28
2021-12-06 07:54:00,,0831.2,4.99,0.00,21.1,20.4,00.0,30.2,22.6,08.8,0000.0,0007.99,0001.80,0001.29
2021-12-06 07:55:00,,0831.4,5.00,0.00,21.1,20.2,00.0,30.1,22.6,08.8,0000.0,0007.73,0001.79,0001.28
2021-12-06 07:56:00,,0831.5,5.00,0.00,21.0,20.1,00.0,30.1,22.5,08.8,0000.0,0006.47,0001.83,0001.29
2021-12-06 07:57:00,,0831.5,4.99,0.00,21.0,20.1,00.0,30.1,22.5,08.9,0000.0,0006.70,0001.86,0001.30
2021-12-06 07:58:00,,0831.6,5.00,0.00,21.0,20.1,00.0,30.1,22.5,08.9,0000.0,0007.32,0001.83,0001.29
2021-12-06 07:59:00,,0831.5,5.00,0.00,21.0,20.1,00.0,30.1,22.5,08.9,0000.0,0007.70,0001.83,0001.29
